軌道要素
Epoch 2005 July 9.0 TT = JDT 2453560.5
T 2005 June 20.29224 TT MPC
q 2.2757438 (2000.0) P Q
n 0.15067800 Peri. 153.62460 -0.70916537 +0.68988579
a 3.4975948 Node 70.80034 -0.67102016 -0.59714389
e 0.3493404 Incl. 8.85689 -0.21637104 -0.40923927
P 6.54
From 23 observations 2005 Apr. 4-May 25, mean residual 0".4.
|